Home   Weather   Rostock   Past weeks

Flag for Germany Past Weather in Rostock, Mecklenburg-Western Pomerania, Germany — Yesterday and Last 2 Weeks

Now
46 °F

Partly cloudy.


Feels Like: 41 °F
Forecast: 43 / 48 °F
Wind: 12 mph from Southwest

Location: Laage

Current Time: Dec 8, 2016 at 11:12:01 pm

Latest Report: Dec 8, 2016 at 10:20 pm


Visibility: 4 mi

Pressure: 30.12 "Hg

Humidity: 87%

Dew Point: 43 °F

Location of RostockLocation

Past Weather in Rostock — Graph

°F

Rostock Temperature Yesterday

Maximum temperature yesterday: 41 °F (at 9:20 pm)
Minimum temperature yesterday: 32 °F (at 8:20 am)
Average temperature yesterday: 36 °F

High & Low Weather Summary for the Past Weeks

 TemperatureHumidityPressure
High48 °F (Dec 8, 10:49 am)100% (Nov 24, 1:20 am)30.60 "Hg (Nov 24, 1:20 am)
Low23 °F (Dec 3, 8:20 am)52% (Nov 28, 11:52 am)29.71 "Hg (Dec 1, 8:20 pm)
Average37 °F85%30.21 "Hg
* Reported Nov 23 9:02 pm — Dec 8 9:20 pm, Rostock, Weather by CustomWeather, © 2016

Note: Actual official high and low records may vary slightly from our data, if they occured in-between our weather recording intervals... More about our weather records

Advertising

Rostock Weather History for the Previous 24 Hours

Scroll right to see more
 ConditionsComfort  
Time TempWeatherWind HumidityBarometerVisibility
9:20 pm
Thu, Dec 8
46 °FPassing clouds.9 mph87%30.15 "Hg4 mi
8:20 pm46 °FDrizzle. Fog.9 mph93%30.15 "Hg3 mi
7:20 pm46 °FRain. Fog.12 mph93%30.15 "Hg2 mi
6:20 pm46 °FPassing clouds.10 mph87%30.15 "Hg5 mi
5:20 pm48 °FPassing clouds.13 mph87%30.15 "Hg6 mi
4:20 pm48 °FPassing clouds.14 mph82%30.15 "HgN/A
3:20 pm48 °FPartly sunny.12 mph82%30.15 "HgN/A
2:20 pm48 °FPartly sunny.12 mph82%30.15 "HgN/A
1:20 pm48 °FPartly sunny.14 mph82%30.12 "HgN/A
12:20 pm48 °FPartly sunny.12 mph82%30.15 "HgN/A
11:20 am48 °FPartly sunny.12 mph82%30.15 "HgN/A
10:49 am48 °FPartly sunny.15 mph82%30.15 "HgN/A
10:20 am46 °FPartly sunny.15 mph82%30.18 "HgN/A
10:03 am46 °FDrizzle. Partly sunny.15 mph82%30.15 "Hg6 mi
9:20 am46 °FPartly sunny.12 mph76%30.15 "HgN/A
8:20 am45 °FPartly sunny.9 mph81%30.15 "HgN/A
8:01 am45 °FPassing clouds.10 mph81%30.15 "HgN/A
7:20 am46 °FPassing clouds.15 mph76%30.15 "HgN/A
6:20 am46 °FPassing clouds.15 mph76%30.15 "HgN/A
5:20 am46 °FCool.13 mph76%30.15 "HgN/A
4:20 am46 °FPassing clouds.14 mph76%30.15 "HgN/A
3:20 am46 °FCool.14 mph76%30.18 "HgN/A
2:20 am45 °FPassing clouds.14 mph81%30.18 "HgN/A
1:20 am45 °FPassing clouds.12 mph81%30.18 "HgN/A
12:20 am43 °FPassing clouds.9 mph81%30.21 "HgN/A
11:20 pm
Wed, Dec 7
41 °FPassing clouds.10 mph87%30.21 "HgN/A
Weather by CustomWeather, © 2016

See weather overviewHow to use our weather pages